Theta_e
285 285 285 285 285 284 284 284 284 284 284 284 284 284 284 284 284 284 284 284 284 284 284 284 284 284 285 285 285 285 285 286 286 287 287 287 287 287 287 287 288 288 288 288 288 288 288 288 288 289 289 289 289 289 289 290 290 290 290 290 291 291 291 291 292 292 292 292 292 292 292 292 292 292 292 292 292 292 292 292 293 293 293 293 293 293
285 285 285 285 284 284 284 284 284 284 284 284 284 284 284 284 284 284 284 284 284 284 284 284 284 285 285 285 285 285 285 286 286 286 286 286 287 287 287 287 287 288 288 288 288 288 288 288 288 288 289 289 289 289 289 289 290 290 290 290 290 291 291 291 291 291 291 291 291 292 292 292 292 292 292 292 292 292 292 292 292 293 293 293 293 293
285 285 285 285 284 284 284 284 284 284 284 284 284 284 285 284 284 284 284 284 284 284 284 284 285 285 285 285 285 285 285 286 286 286 286 286 286 286 287 287 287 287 287 287 287 288 288 288 288 288 288 289 289 289 289 289 289 290 290 290 290 290 290 291 291 291 291 291 291 291 291 291 291 291 291 291 291 291 292 292 292 292 292 293 293 293
285 285 285 285 284 284 284 284 284 284 284 285 285 285 285 284 284 284 284 284 284 284 284 285 285 285 285 286 285 285 285 285 285 285 285 286 286 286 286 286 287 287 287 287 287 287 288 288 288 288 288 288 289 289 289 289 289 289 290 290 290 290 290 290 290 290 290 290 290 290 290 290 290 290 291 291 291 291 291 291 292 292 292 292 292 292
285 285 285 285 284 284 284 284 284 285 285 285 285 285 284 284 284 284 284 284 284 284 285 285 285 285 285 285 285 284 284 284 285 285 285 285 286 286 286 286 286 286 287 287 287 287 287 288 288 288 288 288 289 289 289 289 289 289 289 289 289 289 289 289 289 289 289 289 290 290 290 290 290 290 290 290 290 291 291 291 291 291 291 291 292 292
285 285 285 285 284 284 284 285 285 285 285 285 285 284 284 284 283 283 284 284 284 285 285 285 285 285 285 284 284 284 283 284 284 284 285 285 285 285 285 286 286 286 286 286 287 287 287 287 288 288 288 288 288 288 289 289 289 289 289 289 289 289 289 289 289 289 289 289 289 289 289 289 289 290 290 290 290 290 290 291 291 291 291 291 291 292
285 285 285 285 284 284 285 285 285 285 285 285 284 284 283 283 283 283 284 284 285 285 285 285 285 284 284 283 283 283 283 283 284 284 284 284 284 284 285 285 285 286 286 286 287 287 287 287 287 288 288 288 288 288 288 288 288 288 288 288 288 288 288 288 288 288 288 288 288 289 289 289 289 289 289 290 290 290 290 290 290 291 291 291 291 292
285 285 285 285 285 285 285 285 285 285 284 284 284 283 283 283 283 284 284 285 285 285 285 284 284 283 283 283 283 283 283 283 283 283 283 283 284 284 284 285 285 285 286 286 286 287 287 287 287 287 287 287 288 288 288 288 288 288 288 288 287 287 287 287 287 288 288 288 288 288 288 289 289 289 289 289 289 290 290 290 290 291 291 291 291 292
285 285 285 285 285 285 285 285 285 284 284 284 283 283 283 283 284 284 285 285 285 285 284 283 283 283 283 283 283 283 283 283 283 283 283 284 284 284 284 285 285 285 286 286 286 286 286 287 287 287 287 287 287 287 287 287 287 287 287 287 287 287 287 287 287 287 287 288 288 288 288 288 288 289 289 289 290 290 290 290 290 291 291 291 291 292
285 285 285 285 285 285 285 284 284 284 284 284 284 283 284 284 284 285 285 285 284 284 283 283 283 283 283 283 283 283 283 283 283 283 284 284 284 284 284 285 285 285 285 285 286 286 286 286 286 286 286 286 286 286 286 286 286 286 286 286 286 286 286 286 287 287 287 287 288 288 288 288 289 289 289 290 290 290 290 290 291 291 291 291 291 292
285 285 285 285 285 284 284 284 284 284 284 284 284 284 284 284 284 284 284 284 283 283 283 283 283 283 283 283 283 283 283 283 283 283 284 284 284 284 284 284 285 285 285 285 285 285 285 285 285 286 286 286 286 286 286 286 286 286 286 286 286 286 286 286 286 287 287 287 288 288 288 289 289 289 289 290 290 290 290 290 290 290 291 291 291 292
285 285 285 285 284 284 284 284 284 284 284 284 284 284 284 284 284 284 284 283 283 283 283 283 283 283 283 283 283 283 283 283 283 283 284 284 284 284 284 284 284 284 284 284 284 284 284 284 285 285 285 285 285 285 285 285 285 285 285 285 285 285 286 286 286 287 287 287 288 288 288 289 289 289 289 290 290 290 290 290 290 290 290 291 291 291
285 285 285 284 284 285 285 285 285 284 284 284 284 284 284 284 284 284 283 283 283 283 283 283 283 283 283 283 283 283 283 283 284 284 284 284 284 284 284 284 284 284 284 284 284 284 284 284 284 284 284 284 284 284 284 284 284 284 284 284 285 285 286 286 287 287 287 287 288 288 288 288 289 289 289 289 289 290 290 290 290 290 290 291 291 291
285 285 285 285 285 285 285 285 285 284 284 284 284 284 284 284 284 283 283 283 283 283 283 283 283 283 283 283 283 284 284 284 284 284 284 284 285 285 285 284 284 284 284 284 283 283 283 283 283 283 283 283 283 283 283 283 283 284 284 285 285 286 286 286 287 287 287 287 288 288 288 288 288 289 289 289 289 290 290 290 290 290 290 290 291 291
285 285 285 286 286 286 285 285 285 284 284 284 284 284 284 284 284 283 283 283 283 283 283 283 283 283 283 284 284 284 284 284 284 285 285 285 285 284 284 284 284 284 283 283 283 283 283 283 283 282 282 282 282 282 282 283 283 284 284 285 285 286 286 286 287 287 287 287 287 288 288 288 288 288 289 289 289 289 290 290 290 290 290 290 291 291
286 286 286 286 286 285 285 284 284 284 284 284 284 284 284 284 284 283 283 283 283 283 283 283 283 284 284 284 284 284 285 285 285 285 285 285 284 284 284 284 283 283 283 283 283 283 282 282 282 282 282 282 282 282 283 283 284 284 285 285 285 286 286 286 286 287 287 287 287 287 288 288 288 288 289 289 289 289 289 289 290 290 290 290 290 290
286 286 286 286 285 285 284 284 284 284 284 284 284 284 284 284 283 283 283 283 283 283 283 283 284 284 284 284 284 285 285 285 285 285 284 284 284 284 283 283 283 283 283 282 282 282 282 282 282 282 282 282 282 282 283 283 284 284 285 285 285 285 286 286 286 286 287 287 287 287 288 288 288 288 288 288 289 289 289 289 289 289 290 290 290 290
286 286 285 285 284 284 284 284 284 284 284 284 284 284 284 284 283 283 283 283 283 283 284 284 284 284 284 285 285 285 285 285 284 284 284 284 283 283 283 283 283 282 282 282 282 282 282 282 282 282 282 282 282 283 283 284 284 284 284 285 285 285 286 286 286 286 286 287 287 287 287 288 288 288 288 288 288 288 289 289 289 289 289 289 290 290
286 285 285 285 284 284 284 284 284 284 284 284 284 284 284 284 283 283 283 283 283 283 284 284 284 284 284 285 285 285 285 284 284 283 283 283 283 283 283 282 282 282 282 282 282 282 282 282 282 282 282 282 282 283 283 283 284 284 284 285 285 285 286 286 286 286 286 287 287 287 287 287 287 288 288 288 288 288 288 288 289 289 289 289 289 290
285 285 285 285 285 285 285 285 285 284 284 284 284 284 284 284 283 283 284 284 284 284 284 284 284 284 285 285 285 284 284 283 283 283 283 283 283 282 282 282 282 282 282 281 281 281 281 281 282 282 282 282 282 282 283 283 284 284 284 285 285 285 285 286 286 286 286 287 287 287 287 287 287 287 287 288 288 288 288 288 289 289 289 289 289 290
285 285 284 285 285 285 285 285 285 284 284 284 284 284 284 284 284 284 284 284 284 284 284 284 285 285 285 284 284 284 283 283 282 282 282 282 282 282 282 282 282 281 281 281 281 281 281 282 282 282 282 282 282 282 283 283 284 284 284 285 285 285 285 286 286 286 286 286 286 287 287 287 287 287 287 287 288 288 288 288 288 289 289 289 289 289
285 285 285 285 285 285 285 285 284 284 284 284 284 284 284 284 284 284 284 284 284 285 285 285 284 284 284 283 283 283 282 282 282 282 282 282 282 282 282 282 282 281 281 281 281 282 282 282 282 282 282 282 282 283 283 283 284 284 284 285 285 285 285 285 286 286 286 286 286 286 286 286 287 287 287 287 288 288 288 288 288 288 288 288 288 289
286 286 286 286 285 285 285 284 284 284 284 284 284 284 284 284 284 284 284 284 284 284 284 283 283 283 283 282 282 282 282 282 282 281 281 281 282 282 282 282 282 282 282 282 282 282 282 282 282 282 282 282 282 282 283 283 284 284 284 284 285 285 285 285 285 285 286 286 286 286 286 286 287 287 287 287 287 287 287 287 288 288 288 288 288 288
285 285 285 285 284 284 284 284 284 284 285 285 285 285 285 285 285 285 285 284 284 283 283 282 282 282 282 282 282 282 281 281 281 281 281 281 281 282 282 282 282 282 282 282 282 282 282 282 282 282 282 282 282 282 283 283 283 284 284 284 284 284 285 285 285 285 285 286 286 286 286 286 286 286 287 287 287 287 287 287 287 287 288 288 288 288
285 284 284 284 285 285 285 285 285 286 286 286 287 287 286 286 285 284 283 283 283 282 282 282 282 282 281 281 281 281 281 281 281 281 281 281 281 281 281 281 281 281 282 282 282 282 282 282 282 282 282 282 282 282 283 283 283 283 284 284 284 284 284 285 285 285 285 285 285 286 286 286 286 286 286 286 286 287 287 287 287 287 288 288 288 288
284 285 285 285 285 285 286 286 286 286 286 286 286 285 285 284 284 283 283 282 282 282 282 282 281 281 281 281 281 281 281 281 281 281 281 281 281 281 281 281 281 281 282 282 282 282 282 282 282 282 282 282 282 282 282 282 283 283 283 283 284 284 284 284 285 285 285 285 285 285 285 285 286 286 286 286 286 286 287 287 287 287 287 288 288 288
284 285 285 285 285 285 285 285 285 285 285 285 284 284 284 283 283 283 282 282 282 282 282 281 281 281 281 281 281 281 281 281 281 281 281 281 281 281 281 281 281 281 282 282 282 282 282 282 282 282 282 282 282 282 282 282 282 283 283 283 284 284 284 284 284 284 284 284 285 285 285 285 285 286 286 286 286 286 287 287 287 287 287 288 288 288
284 284 284 284 285 285 285 284 284 284 283 283 283 283 283 283 282 282 282 282 282 282 281 281 281 281 281 281 281 281 281 281 281 281 281 281 281 281 281 281 281 282 282 282 282 282 282 282 282 282 282 282 282 282 282 282 282 282 283 283 283 283 283 283 283 284 284 284 284 285 285 285 285 285 286 286 286 286 286 287 287 287 287 287 287 287
284 284 284 284 284 283 283 283 282 282 282 282 282 282 282 282 282 282 282 282 281 281 281 281 281 281 281 281 281 281 281 281 281 281 281 281 281 281 281 282 282 282 282 282 282 282 282 282 282 282 282 282 282 282 282 282 282 282 282 282 282 282 282 283 283 283 283 284 284 284 285 285 285 285 286 286 286 286 286 286 286 287 287 287 287 287
283 283 282 282 282 282 281 281 281 281 281 281 281 282 282 282 281 281 281 281 281 281 281 281 281 281 281 281 281 281 281 281 282 282 281 281 281 281 281 281 281 281 281 281 281 282 282 282 282 282 282 282 282 282 282 282 282 281 281 282 282 282 282 282 282 283 283 283 284 284 284 285 285 285 285 285 286 286 286 286 286 286 286 286 286 286
282 281 281 281 281 281 281 281 281 281 281 281 281 281 281 281 281 281 281 281 281 281 281 281 281 281 281 281 281 281 281 282 282 281 281 281 281 281 281 281 281 281 281 281 281 281 282 282 282 282 282 282 281 281 281 281 281 281 281 281 282 282 282 282 282 283 283 283 284 284 284 284 284 285 285 285 285 285 285 286 286 286 286 286 286 286
281 281 281 281 281 281 281 281 281 281 281 281 281 281 281 281 281 281 281 281 281 281 281 281 281 281 281 281 281 281 281 281 281 281 281 281 281 281 281 281 281 281 281 281 281 281 281 281 281 281 281 281 281 281 281 281 281 281 281 282 282 282 282 282 282 282 283 283 283 283 283 284 284 284 284 284 285 285 285 285 285 286 286 286 286 286
281 281 281 281 281 281 281 281 281 281 281 281 281 281 281 281 281 281 281 281 281 281 281 281 281 281 281 281 281 281 281 281 281 281 281 281 281 281 281 281 281 281 281 281 281 281 281 281 281 281 281 281 281 281 281 281 281 282 282 282 282 282 282 282 282 282 282 282 282 283 283 283 283 283 284 284 284 284 285 285 285 285 285 286 286 286
280 280 280 280 280 280 280 281 281 281 281 281 281 281 281 281 281 281 281 281 281 281 281 281 281 281 281 281 281 281 281 281 281 281 281 281 281 281 281 281 281 281 281 281 281 281 281 281 281 281 281 281 281 281 281 281 281 282 282 282 282 282 282 282 282 282 282 282 282 282 282 282 283 283 283 283 283 284 284 284 285 285 285 286 286 286
280 280 280 280 280 280 281 281 281 281 281 281 281 281 281 281 281 281 281 281 281 281 281 281 281 281 281 281 281 281 281 281 281 281 281 281 281 281 281 281 281 281 281 281 281 281 281 281 281 281 281 281 281 281 281 281 282 282 282 282 282 282 282 282 282 282 282 282 282 282 282 282 282 282 283 283 283 283 284 284 284 285 285 286 286 286
280 280 280 280 280 281 281 281 281 281 281 281 281 281 281 281 280 280 280 280 280 280 280 280 280 280 280 280 280 281 281 280 280 280 280 280 281 281 281 281 281 281 280 281 281 281 281 281 281 281 281 281 281 281 281 281 282 282 282 282 282 282 282 282 282 282 282 282 282 282 282 282 282 282 283 283 283 283 284 284 285 285 285 286 286 286
280 280 280 280 281 281 281 281 281 281 280 280 280 280 280 280 280 280 280 280 280 280 280 280 280 280 280 280 280 280 280 280 280 280 280 280 280 280 280 280 280 280 280 280 281 281 281 281 281 281 281 281 281 281 281 281 282 282 282 282 282 282 282 282 282 282 282 282 282 282 282 282 283 283 283 283 283 284 284 284 285 285 285 285 285 286
280 280 280 280 281 281 281 280 280 280 280 280 280 280 280 280 280 280 280 280 280 280 280 280 280 280 280 280 280 280 280 280 280 280 280 280 280 280 280 280 280 280 280 280 281 281 281 281 281 281 281 281 281 281 281 282 282 282 282 282 282 282 282 282 282 282 282 282 282 282 283 283 283 283 283 283 283 284 284 284 284 284 284 284 285 285
280 280 280 280 280 280 280 280 280 280 280 280 280 280 280 280 280 280 280 280 280 280 280 280 280 280 280 280 280 280 280 280 280 280 280 280 280 280 280 280 280 280 280 280 280 280 281 281 281 281 281 281 281 281 281 281 281 282 282 282 282 282 282 282 282 282 282 282 283 283 283 283 283 283 283 283 283 283 283 284 284 284 284 284 284 284
280 280 280 280 280 280 280 280 280 280 280 280 280 280 280 280 280 280 280 280 280 280 280 280 280 280 280 280 280 280 280 280 280 280 280 280 280 280 280 280 280 280 280 280 280 280 280 281 281 281 281 281 281 281 281 281 281 282 282 282 282 282 282 282 282 282 282 283 283 283 283 283 283 283 283 283 284 284 284 284 284 284 284 284 284 284
280 280 280 280 280 280 280 280 280 280 280 280 280 280 279 279 279 279 279 279 280 280 280 280 280 280 280 280 280 280 280 280 280 280 280 280 280 280 280 280 280 280 280 280 280 280 280 280 281 281 281 281 281 281 281 281 282 282 282 282 282 282 282 282 283 283 283 283 283 283 283 283 283 283 284 284 284 284 284 284 284 284 284 284 284 284
280 280 280 280 279 279 279 279 279 279 279 279 279 279 279 279 279 279 279 279 280 280 280 280 280 280 280 280 280 280 280 280 280 280 280 280 280 280 280 280 280 280 280 280 280 280 280 280 281 281 281 281 281 281 281 281 282 282 282 282 282 282 282 283 283 283 283 283 283 283 283 283 283 284 284 284 284 284 284 284 284 284 284 284 284 284
279 279 279 279 279 279 279 279 279 279 279 279 279 279 279 279 279 279 279 279 279 280 280 280 280 280 280 280 280 280 280 280 280 280 280 280 280 280 280 280 280 280 280 280 280 280 280 280 281 281 281 281 281 281 281 282 282 282 282 282 282 282 283 283 283 283 283 283 283 283 283 283 283 283 284 284 284 284 284 284 284 284 284 284 284 284
279 279 279 279 279 279 279 279 279 279 279 279 279 279 279 279 279 279 279 279 279 279 279 280 280 280 280 280 280 280 280 280 280 280 280 280 280 280 280 281 281 281 280 280 280 280 281 281 281 281 281 281 281 281 281 282 282 282 282 282 282 282 283 283 283 283 283 283 283 283 283 283 283 283 283 283 284 284 284 284 284 284 284 284 284 284
279 279 279 279 279 279 279 278 278 278 278 278 279 279 279 279 279 279 279 279 279 279 279 279 280 280 280 280 280 280 280 280 280 280 280 281 281 281 281 281 281 281 281 281 281 281 281 281 281 281 281 281 281 281 282 282 282 282 282 282 283 283 283 283 283 283 283 283 283 283 283 283 283 283 284 284 284 284 284 284 284 284 284 284 284 284
279 279 279 279 278 278 278 278 278 278 278 278 279 279 279 279 279 279 279 279 279 279 279 280 280 280 280 280 280 280 280 280 280 280 280 281 281 281 281 281 281 281 281 281 281 281 281 281 281 281 281 282 282 282 282 282 282 282 282 282 282 283 283 283 283 283 283 283 283 283 283 283 283 284 284 284 284 284 284 284 285 285 285 285 285 285
278 278 278 278 278 278 278 278 278 278 278 278 278 279 279 279 279 279 279 279 279 279 279 279 280 280 280 280 280 280 280 280 280 280 280 281 281 281 281 281 281 281 281 281 281 281 281 281 281 281 281 282 282 282 282 282 282 282 282 282 283 283 283 283 283 283 283 283 283 283 283 284 284 284 284 284 284 285 285 285 285 285 285 285 285 285
278 278 278 278 278 278 278 278 278 278 278 278 278 278 279 279 279 279 279 279 279 279 279 279 279 279 279 280 280 280 280 280 280 280 280 281 281 281 281 281 281 281 281 281 281 281 281 281 281 281 282 282 282 282 282 282 282 282 282 283 283 283 283 283 283 283 283 283 284 284 284 284 284 284 285 285 285 285 285 285 285 285 285 285 285 285
278 278 278 278 278 278 278 278 278 278 278 278 278 278 278 279 279 279 279 279 279 279 279 279 279 279 279 280 280 280 280 280 280 280 280 281 281 281 281 281 281 281 281 281 281 281 282 282 282 282 282 282 282 282 282 282 282 283 283 283 283 283 283 283 284 284 284 284 284 284 284 284 285 285 285 285 285 285 285 285 285 285 285 285 285 285
277 277 277 278 278 278 278 278 278 278 278 278 278 278 278 278 279 279 279 279 279 279 279 279 279 279 279 280 280 280 280 280 280 280 281 281 281 281 281 281 281 281 281 281 282 282 282 282 282 283 283 283 283 283 283 283 283 283 283 283 283 284 284 284 284 284 284 284 285 285 285 285 285 285 285 285 285 285 285 285 285 285 285 285 285 285
277 277 277 277 277 277 277 277 277 278 278 278 278 278 278 278 278 279 279 279 279 279 279 279 279 279 279 280 280 280 280 280 280 280 281 281 281 281 281 281 281 281 281 282 282 282 282 282 283 283 283 283 284 284 284 284 284 284 284 284 284 284 284 284 285 285 285 285 285 285 285 285 285 285 285 285 285 285 285 285 285 285 285 285 285 285
Wind_Speed
15 16 17 18 18 19 19 20 21 22 23 24 24 25 24 24 25 25 26 26 26 26 26 26 26 26 26 25 25 24 24 23 23 24 24 25 25 25 26 26 26 26 26 26 26 26 26 25 25 25 25 25 25 25 25 25 25 25 25 25 25 25 25 26 26 26 26 26 26 27 27 27 27 27 27 28 28 28 29 29 29 29 30 30 30 30
15 16 16 16 17 18 19 20 20 21 23 24 24 24 24 25 25 26 26 26 26 26 26 26 26 26 26 25 25 24 24 23 24 24 24 25 25 26 26 26 26 26 26 26 26 26 25 25 25 25 25 25 25 25 25 25 25 25 25 25 25 26 26 26 26 26 26 27 27 27 27 27 27 27 28 28 28 29 29 29 29 29 29 29 30 30
15 16 16 16 16 17 19 20 20 21 22 23 23 23 23 24 25 25 26 26 26 25 25 25 25 25 25 25 25 25 24 24 24 24 25 25 26 26 26 26 26 26 26 26 26 25 25 25 25 25 25 25 25 25 26 25 25 26 26 26 26 26 26 27 27 27 27 27 27 27 27 27 27 27 28 28 28 29 29 29 29 29 29 29 29 30
15 15 16 17 17 17 18 20 20 21 21 22 22 22 22 23 24 25 25 26 26 25 25 24 24 24 25 25 25 25 24 24 24 24 25 26 26 27 27 27 27 26 26 26 25 25 25 25 25 25 25 26 26 26 26 26 26 26 26 26 27 27 27 27 27 27 27 27 27 27 27 27 27 27 28 28 28 28 28 29 29 29 29 29 29 29
15 15 16 16 17 17 18 19 20 20 20 20 20 21 21 22 23 24 25 25 25 24 23 23 23 23 24 24 25 25 24 24 24 25 25 26 27 27 27 27 26 26 26 25 25 25 25 25 26 26 26 26 26 26 26 26 26 27 27 27 27 27 27 27 27 27 27 27 27 27 27 27 27 27 27 27 27 28 28 28 28 28 28 29 29 29
15 15 15 16 17 18 18 19 19 19 19 19 20 21 22 23 23 24 24 23 23 22 22 22 23 23 23 24 24 25 24 24 24 25 26 26 26 27 26 26 25 25 25 25 25 25 26 26 26 26 26 26 26 26 27 27 27 27 27 27 27 27 27 27 27 26 26 26 26 26 26 26 26 26 26 26 27 27 27 27 28 28 28 28 28 29
15 15 16 16 17 18 18 18 17 18 18 20 21 22 22 23 23 22 22 21 21 21 22 22 22 23 23 24 24 25 25 25 26 26 26 26 26 25 25 25 25 25 25 25 25 25 26 26 26 26 26 27 27 27 27 27 27 27 27 27 27 27 26 26 26 25 25 25 25 25 25 25 25 25 25 26 26 26 26 27 27 27 27 28 28 28
16 17 17 17 17 18 17 17 17 17 19 21 22 23 23 22 21 21 20 20 19 20 21 22 23 23 24 24 25 25 26 26 26 26 26 26 25 25 25 24 24 24 25 25 25 25 26 26 26 27 27 28 28 28 28 28 28 28 27 27 26 26 26 25 25 25 24 24 24 24 25 25 25 25 25 25 26 26 26 26 27 27 27 28 28 28
16 17 17 17 17 18 18 18 18 18 20 21 21 22 22 22 21 20 19 18 18 19 20 22 24 24 25 25 25 25 25 25 25 25 25 25 25 25 25 25 24 24 24 25 25 26 26 27 27 28 28 28 29 29 28 28 28 27 27 26 26 26 25 25 25 24 24 24 24 24 24 25 25 25 25 26 26 26 27 27 27 27 27 28 28 28
16 17 18 17 17 17 18 19 20 20 20 20 20 20 20 20 19 19 19 19 20 20 21 22 24 25 25 25 25 25 25 25 24 24 24 24 24 24 24 24 24 24 24 25 26 26 27 28 28 28 28 29 29 29 28 28 27 27 26 26 26 25 25 25 25 24 24 24 24 24 25 25 25 26 26 26 27 27 27 27 27 28 28 29 29 29
16 17 17 18 18 18 18 19 20 20 20 19 19 18 17 17 17 18 19 21 22 23 22 22 23 23 24 25 25 25 25 25 25 25 24 24 24 23 23 23 23 24 24 25 26 27 28 28 28 28 29 29 29 28 28 27 27 27 26 26 26 25 25 25 25 25 24 25 25 25 26 26 26 26 27 27 28 28 28 28 28 28 29 29 29 29
15 17 17 18 18 17 17 17 17 17 17 17 17 16 16 16 16 17 19 21 23 24 23 23 23 23 24 25 26 26 25 25 25 25 24 23 23 22 22 23 24 25 25 26 27 27 28 28 28 28 28 28 28 28 27 27 27 27 26 26 26 26 25 25 25 25 25 25 26 26 26 27 27 27 27 28 28 28 28 28 29 29 29 30 30 30
16 16 16 17 17 16 16 16 16 16 16 16 16 16 17 17 17 18 19 21 22 23 23 23 23 23 24 24 24 24 24 24 24 24 23 22 21 21 22 24 25 26 26 27 28 28 29 29 29 28 28 28 28 28 28 27 27 27 27 27 26 26 26 26 26 26 26 27 27 27 27 27 28 28 28 28 28 28 28 29 29 29 30 30 30 31
16 17 16 16 16 15 14 15 16 16 16 16 16 17 18 18 19 19 20 21 22 23 23 23 24 23 23 23 22 22 22 23 23 22 22 21 21 22 23 24 25 26 27 28 28 29 29 29 29 29 29 29 29 29 29 29 28 27 27 27 27 27 27 27 27 27 27 28 28 28 28 28 28 28 28 29 29 29 29 29 30 30 30 30 31 31
15 16 15 14 13 14 14 15 16 16 17 17 17 18 18 19 19 19 19 20 22 22 23 23 23 23 22 21 20 20 20 21 21 21 22 23 23 23 24 25 26 27 27 28 29 30 30 29 29 30 30 31 31 30 30 28 28 28 28 28 28 28 28 28 28 28 29 29 29 29 29 29 29 29 29 29 29 29 30 30 30 30 30 30 31 31
14 14 13 14 14 15 16 17 17 17 18 18 18 17 18 18 18 18 19 20 21 22 21 21 21 21 21 20 19 19 19 19 20 21 23 25 25 24 24 25 26 28 28 28 29 29 29 29 29 29 30 30 30 29 28 28 28 28 29 29 29 29 29 29 29 29 29 29 29 29 29 29 29 29 30 30 30 30 30 30 30 30 30 31 31 31
13 13 13 14 15 17 18 18 17 18 18 18 17 17 17 17 18 19 19 20 21 20 19 18 16 14 15 20 20 18 18 19 20 22 24 26 27 27 25 25 26 28 28 29 29 29 28 28 29 29 30 30 29 29 28 29 29 29 30 30 30 30 30 30 30 30 30 30 30 30 30 30 30 30 30 30 30 30 30 30 30 30 30 30 31 31
12 13 14 15 16 17 18 18 17 17 17 17 17 17 17 18 19 20 20 20 20 20 19 18 16 13 12 17 20 20 19 20 22 24 26 28 30 29 26 25 25 27 28 28 28 28 28 28 29 29 30 30 29 29 29 30 30 30 30 31 31 31 31 31 31 31 31 31 31 31 31 30 30 30 30 30 30 30 30 30 30 30 30 30 30 30
14 15 15 16 17 17 18 18 17 17 16 16 17 18 19 20 20 21 21 21 20 20 19 18 17 17 17 18 21 22 21 21 23 25 27 29 31 30 27 25 24 25 26 27 27 27 27 28 29 30 30 30 30 30 30 30 30 30 31 31 31 31 32 32 32 32 32 31 31 31 31 31 31 31 31 30 30 30 30 30 30 30 30 30 30 30
16 17 17 17 17 18 18 18 17 16 16 17 19 20 21 21 21 21 21 21 20 19 19 18 18 18 18 20 22 23 23 24 24 25 27 29 30 29 26 23 23 24 26 27 27 27 27 28 29 30 30 30 30 30 29 30 30 31 31 32 32 32 32 32 32 32 32 32 32 32 32 31 31 31 31 30 30 30 30 30 30 30 30 30 30 30
18 19 19 18 18 18 17 17 17 18 19 20 21 22 22 22 22 21 21 20 19 18 16 15 16 18 19 21 24 26 26 25 24 24 26 27 27 27 24 22 22 23 25 26 26 26 26 27 28 29 30 30 30 30 30 30 31 31 32 32 32 32 32 32 32 32 32 32 32 32 32 31 31 31 31 31 30 30 30 30 30 30 30 30 30 30
19 19 19 19 18 18 18 19 20 21 22 23 23 23 22 22 22 21 20 18 17 16 16 16 18 21 23 26 27 28 27 24 22 21 22 22 24 25 23 21 21 22 24 25 26 26 26 27 28 29 30 30 30 30 30 30 31 31 31 32 32 32 32 32 32 32 32 32 32 32 32 31 31 31 31 31 31 31 30 30 30 30 30 30 30 30
19 19 19 18 18 18 20 22 23 24 25 25 25 24 24 24 22 20 18 17 17 17 19 22 24 26 27 27 27 27 25 23 21 20 18 17 20 24 23 21 21 22 24 25 26 26 26 27 28 29 30 30 30 30 30 30 31 31 31 32 32 32 32 32 32 32 32 32 32 32 32 32 31 31 31 31 31 31 31 31 30 30 30 30 30 30
19 19 19 20 21 22 23 24 24 25 24 24 24 24 23 21 19 18 18 20 21 23 25 26 27 26 26 25 24 23 22 20 19 18 17 17 20 23 24 22 21 23 24 25 26 26 26 27 28 28 29 29 29 29 30 30 30 31 31 32 32 32 32 32 32 32 32 32 32 32 32 32 32 32 32 32 31 31 31 31 30 30 30 30 30 30
20 21 22 22 22 22 23 23 23 23 23 23 23 22 21 21 21 23 25 26 25 25 24 24 23 22 22 22 21 21 20 19 18 17 17 17 20 24 24 22 21 22 25 26 26 25 25 27 27 28 28 29 29 29 30 30 30 31 31 31 32 32 32 32 32 32 32 32 32 32 32 32 32 32 32 32 31 31 31 30 30 30 30 30 30 30
20 20 21 21 22 22 22 23 23 23 23 23 23 24 24 24 24 24 24 23 21 20 20 19 18 19 20 20 20 20 20 19 17 17 17 17 20 23 24 22 21 22 24 26 26 25 25 26 28 28 29 29 29 29 30 30 30 30 30 31 31 31 32 32 32 32 33 33 33 33 33 33 32 32 32 31 31 31 30 30 30 30 30 30 30 30
20 20 20 20 21 21 21 21 22 22 22 22 23 22 22 22 21 21 20 19 18 17 17 15 15 16 19 19 19 20 21 20 18 17 17 18 20 21 23 22 21 22 24 25 26 25 25 26 28 29 29 29 29 29 29 29 29 29 29 30 31 31 32 33 33 33 33 33 33 33 33 32 32 32 31 31 31 31 30 30 30 30 30 30 30 29
18 18 18 18 19 19 20 20 21 22 22 23 22 22 21 20 18 17 17 17 17 16 16 15 13 13 15 17 20 22 22 21 19 18 18 18 17 19 21 22 21 22 23 25 26 27 26 26 27 28 28 28 28 28 28 28 28 28 29 30 31 32 33 33 33 33 33 33 32 32 32 32 32 32 31 31 31 31 31 30 30 30 30 29 28 27
16 16 17 17 18 19 20 21 23 23 23 22 21 19 18 17 16 16 17 18 17 17 17 17 16 15 16 19 22 24 23 21 19 17 16 15 16 18 21 22 21 22 22 24 26 27 26 25 24 24 25 26 26 26 27 28 28 29 30 31 32 33 33 33 33 32 32 32 32 32 32 32 32 32 31 31 31 31 30 30 30 29 28 27 26 26
16 17 19 20 21 22 23 23 24 23 22 20 18 16 15 16 16 18 19 18 18 17 17 17 17 17 17 18 18 18 19 20 18 15 14 14 15 18 21 22 22 22 21 19 17 17 21 24 24 22 22 24 25 26 27 28 29 29 30 31 31 32 32 32 32 32 32 32 32 32 32 32 32 31 31 31 31 30 30 30 29 28 27 26 26 26
20 22 23 24 24 24 23 22 21 20 19 18 16 15 15 16 17 18 18 18 18 18 18 18 18 18 17 14 10 7 10 19 19 16 15 15 17 19 21 21 22 22 21 16 7 4 11 17 22 23 22 23 25 27 28 28 29 29 29 30 30 31 31 31 31 31 31 31 31 31 31 31 31 31 31 31 31 30 30 30 29 27 26 26 25 25
24 25 25 25 24 23 21 20 19 18 18 17 17 16 16 16 16 17 18 18 18 18 18 19 19 19 18 16 11 9 13 21 23 20 18 17 18 20 21 20 21 22 22 20 15 10 8 8 17 25 25 25 26 27 28 28 28 28 29 29 30 31 31 31 30 30 30 30 31 31 31 31 31 31 31 31 30 30 30 29 28 27 26 25 25 24
25 24 24 23 22 21 19 18 18 18 18 17 17 17 17 17 17 17 17 17 18 18 18 19 19 19 20 20 20 20 23 25 25 22 20 18 18 20 21 21 21 22 23 23 22 20 15 14 19 25 26 26 26 26 27 27 27 28 28 29 29 30 31 30 30 30 30 30 31 31 31 31 31 30 30 30 30 30 29 29 28 27 25 25 25 24
23 22 22 21 20 19 18 18 18 18 18 17 17 17 17 17 17 17 17 18 18 19 19 20 20 20 20 20 22 24 26 27 25 22 20 19 19 20 22 22 22 23 23 23 23 22 21 23 24 24 24 26 27 26 26 26 27 28 28 28 29 30 30 30 29 30 30 30 30 30 31 31 31 30 30 30 29 29 28 27 27 26 25 25 25 25
21 20 20 19 18 18 18 17 17 17 17 17 16 16 17 17 18 18 18 19 19 19 20 20 21 21 21 21 21 23 26 27 26 24 22 21 21 21 23 23 23 22 21 21 21 20 20 23 25 24 23 24 26 27 26 26 27 27 28 28 28 29 30 30 30 30 30 30 30 30 30 31 31 31 30 29 29 28 27 27 26 26 26 25 25 25
19 18 18 17 17 17 17 17 17 17 17 17 17 17 18 18 19 19 19 20 20 21 21 22 22 23 23 23 24 25 27 29 29 27 25 24 24 23 23 24 24 23 22 22 21 20 19 21 24 25 23 21 22 25 27 27 27 27 28 28 28 28 29 29 29 29 29 29 29 30 30 30 30 30 30 29 29 28 27 27 27 27 27 27 27 27
16 16 16 16 16 16 16 17 17 17 17 17 18 18 19 19 20 20 21 22 22 23 23 24 24 24 25 26 27 28 29 31 31 30 30 29 28 27 25 25 26 25 23 22 22 22 21 20 21 22 22 20 19 21 25 27 28 27 28 28 28 28 29 29 29 28 28 28 29 29 29 28 28 28 29 29 28 28 28 28 27 27 27 27 27 27
15 15 15 16 16 16 16 17 17 17 18 18 19 20 20 21 21 22 22 23 23 24 24 24 25 26 26 27 29 31 32 33 34 35 34 33 32 30 27 27 26 26 24 23 23 24 22 18 15 13 14 19 22 25 26 27 27 27 28 28 28 28 29 29 28 28 27 27 28 28 28 28 28 28 29 29 29 29 28 28 28 28 27 27 27 27
14 15 16 16 16 16 16 17 17 18 19 19 20 21 21 22 22 22 22 22 23 23 24 24 25 26 28 29 30 31 32 32 33 34 34 33 32 31 29 27 27 27 26 25 25 24 23 20 16 13 12 16 22 26 28 27 27 27 28 29 29 28 28 27 26 26 26 26 27 28 28 28 28 29 29 29 29 28 27 28 28 27 27 26 26 27
15 15 16 16 16 16 17 17 18 19 19 20 21 21 21 21 22 22 22 22 22 22 23 24 25 26 26 27 28 28 29 30 31 32 32 32 32 31 30 28 27 27 27 26 26 25 24 23 23 23 22 21 22 24 26 27 27 27 27 25 25 27 28 27 26 26 26 26 27 27 28 28 27 27 27 27 27 27 27 27 27 27 27 26 25 25
15 16 16 17 17 17 17 18 19 19 19 20 20 20 20 20 21 22 22 23 22 22 22 22 23 24 26 27 27 27 28 29 29 30 30 30 30 30 30 29 28 28 27 26 26 25 25 25 25 25 26 25 26 26 27 28 29 29 27 25 25 28 30 29 27 26 26 26 26 26 26 26 27 26 26 26 27 28 28 28 28 28 27 26 25 24
15 16 17 17 18 18 19 19 19 19 19 19 19 19 19 20 20 21 22 22 23 22 22 22 22 24 26 27 28 28 28 28 28 28 28 28 28 28 29 29 29 28 27 26 25 25 26 26 25 25 26 26 26 25 26 28 30 29 28 27 28 29 29 28 27 25 24 24 25 25 25 25 26 26 27 27 27 29 29 29 29 28 27 26 26 27
16 17 18 18 18 19 19 19 19 19 19 19 19 19 19 20 20 20 21 21 22 23 23 22 22 23 24 26 27 28 28 28 27 27 26 26 26 26 27 28 29 29 28 26 25 26 27 26 26 25 27 27 25 25 26 28 29 30 29 28 27 24 21 25 27 26 25 25 25 26 26 26 26 27 28 28 28 29 29 29 29 29 28 28 28 29
17 18 18 18 18 19 19 19 19 19 19 19 20 20 20 20 20 20 21 21 22 22 22 22 22 22 22 24 26 28 28 28 28 27 26 25 25 25 25 26 27 28 28 26 25 24 25 26 26 27 27 26 25 25 26 27 28 29 29 28 27 25 23 25 27 28 27 26 26 26 26 27 27 28 28 28 28 28 28 28 28 29 29 29 29 30
17 17 18 18 18 19 19 19 19 19 19 20 20 20 20 20 20 20 20 21 21 22 22 21 20 20 21 23 24 26 27 28 28 27 26 25 24 23 24 25 26 27 27 27 26 25 24 25 26 28 28 27 26 25 26 27 28 28 29 29 28 27 28 29 29 28 27 26 27 27 27 28 28 29 29 28 28 27 26 26 26 27 28 28 28 29
17 17 18 18 18 19 19 19 19 20 20 20 20 20 20 20 20 20 20 20 21 21 22 21 20 19 20 22 23 24 25 27 28 28 27 26 26 25 24 24 25 25 26 27 28 28 27 27 27 28 28 27 27 28 29 28 27 27 28 29 28 28 29 29 28 28 27 27 27 28 28 28 27 27 27 28 28 28 27 26 25 25 26 25 26 26
16 17 18 18 19 19 19 19 19 19 20 20 20 20 20 20 20 20 20 20 20 20 21 21 20 19 20 22 22 22 23 25 27 28 29 28 28 27 26 25 25 25 26 26 27 29 29 30 30 29 26 25 25 27 29 29 28 27 27 28 28 27 27 27 28 28 27 26 27 28 29 28 27 26 26 27 27 27 26 25 24 24 24 24 24 25
17 17 18 18 19 19 19 19 19 19 19 20 20 20 20 20 20 19 20 20 20 20 20 20 20 20 21 22 22 22 23 24 25 27 28 28 28 27 27 26 25 25 25 26 27 28 29 30 31 31 29 26 25 25 28 29 28 27 27 27 26 26 26 28 29 28 27 27 28 29 28 26 25 25 25 25 25 25 25 25 24 24 24 24 25 26
17 18 18 18 18 19 19 19 19 19 19 20 20 21 21 21 20 19 19 20 20 20 19 20 20 20 21 22 23 23 24 24 25 26 27 27 27 27 27 27 26 26 26 27 27 27 27 28 28 29 29 28 27 27 28 29 29 28 27 26 26 25 26 28 29 29 28 27 28 29 28 26 25 24 23 22 23 24 26 26 26 25 25 25 26 27
17 17 18 18 18 18 19 19 19 19 19 20 20 21 21 22 21 20 20 20 20 19 19 19 19 20 21 22 23 24 24 24 24 25 26 26 26 25 26 26 26 26 25 25 25 25 25 24 24 24 25 25 26 27 28 28 29 29 28 27 26 26 26 27 28 28 28 27 27 27 26 25 24 23 22 21 23 25 27 27 27 26 25 25 25 27
17 17 17 17 18 18 19 19 19 19 20 20 20 21 21 21 21 21 21 20 20 20 20 20 20 20 21 22 23 24 24 24 24 25 26 27 26 25 24 24 24 23 22 21 20 20 19 17 18 20 22 22 22 23 25 26 27 27 26 26 26 26 25 26 27 27 27 26 25 25 25 24 23 23 22 22 22 23 24 25 26 26 25 24 24 25
Wind_Direction
300 303 305 307 307 306 304 305 306 307 308 311 313 315 316 317 316 316 317 316 316 315 315 314 313 313 313 312 311 309 306 305 304 303 303 303 303 302 302 302 302 302 302 302 301 300 300 299 299 298 298 298 297 296 296 295 294 293 293 292 292 291 291 290 290 289 289 289 288 288 288 288 287 287 286 285 284 283 282 282 281 280 280 279 279 278
303 304 306 307 307 305 303 304 305 307 308 310 312 314 315 315 315 314 314 314 314 313 312 312 311 311 311 310 310 308 306 304 303 302 302 302 302 302 302 302 302 302 302 301 301 300 300 299 299 298 298 298 297 296 296 295 295 294 293 293 293 292 292 291 291 291 290 289 289 288 288 287 287 286 285 284 283 282 281 281 280 280 279 278 277 277
306 307 307 308 306 304 303 304 306 307 308 309 311 312 313 313 313 312 312 312 312 311 311 310 310 309 309 309 308 307 305 303 302 302 302 302 302 302 302 302 302 302 301 301 301 300 300 299 299 298 298 297 297 296 296 296 295 295 295 294 294 293 293 292 292 291 290 290 289 288 287 286 286 284 283 282 282 281 281 280 280 279 279 278 278 277
307 307 308 309 307 304 303 305 307 309 309 310 311 312 313 312 311 310 310 310 310 309 309 309 309 308 307 307 307 306 305 303 302 301 301 301 301 301 301 301 301 301 301 300 300 299 299 298 298 298 297 297 297 296 296 296 296 296 295 295 294 294 294 293 292 291 290 289 288 287 286 285 284 283 282 281 281 280 280 280 279 279 278 278 277 277
306 307 308 309 308 306 305 307 309 310 311 311 311 312 312 311 309 308 308 308 308 308 308 308 307 306 306 306 306 305 304 302 301 301 300 300 300 300 300 300 300 300 299 299 299 298 298 298 297 297 297 297 296 297 297 297 296 296 296 296 295 295 294 293 292 291 291 289 288 287 286 285 284 283 282 281 281 280 280 280 279 279 278 277 277 276
305 306 308 308 306 306 307 308 310 312 313 312 312 311 310 309 308 307 307 307 306 306 306 306 306 306 306 305 305 304 303 301 300 299 299 299 299 299 298 298 299 299 298 298 298 298 297 297 297 297 297 297 296 296 296 296 296 296 297 296 296 295 294 293 293 292 291 290 288 287 286 285 284 283 283 282 281 281 280 280 279 279 278 277 276 276
304 306 308 307 306 305 307 308 310 312 313 313 312 311 310 309 308 307 306 306 306 305 305 306 307 307 306 305 304 303 302 301 300 299 299 298 298 298 298 298 298 298 298 298 298 297 297 297 297 297 297 297 297 296 296 296 296 296 296 296 296 295 294 293 293 292 291 289 288 287 286 285 285 284 283 282 282 281 281 280 279 278 277 277 276 275
303 306 307 307 307 307 307 307 308 310 311 311 311 311 310 309 308 306 306 306 306 307 308 309 308 307 305 304 303 302 302 301 300 300 299 299 298 298 298 297 297 298 298 298 298 298 298 297 298 298 297 297 297 296 296 296 296 296 296 296 296 295 294 293 293 292 291 289 288 288 287 286 285 285 283 283 282 281 280 280 279 278 277 277 276 275
301 305 306 307 307 308 308 306 306 307 308 309 308 307 307 307 308 308 307 307 308 309 310 310 309 307 305 304 304 303 302 300 299 299 298 298 298 298 298 298 298 298 298 298 298 298 298 298 298 298 297 297 296 296 296 296 296 296 296 296 295 294 294 293 293 292 291 290 289 288 287 286 285 284 283 283 282 281 281 280 279 279 278 277 277 276
300 303 305 305 305 304 304 303 304 306 307 307 305 303 302 304 307 309 310 310 310 310 310 309 308 307 306 306 305 304 302 300 298 297 296 295 296 296 296 297 297 297 298 299 299 299 299 298 298 298 297 297 296 296 296 296 296 295 295 295 294 294 294 293 293 292 291 290 289 288 287 286 285 284 283 283 282 282 281 280 280 279 278 278 277 277
302 303 304 303 302 300 297 296 299 303 308 309 307 305 304 305 307 310 312 311 311 311 310 308 307 306 306 306 305 304 303 301 299 298 297 297 297 297 297 297 297 298 299 299 299 299 299 298 298 298 297 297 296 296 296 296 295 295 295 294 294 294 293 293 292 292 291 290 289 288 287 286 285 285 284 284 283 283 282 281 280 280 279 278 278 277
302 303 302 300 299 297 295 294 297 303 309 311 311 310 309 309 309 310 310 309 309 309 309 308 306 304 303 304 304 303 302 301 300 299 300 301 301 302 301 301 301 301 301 301 300 299 299 299 299 299 298 297 296 296 296 295 295 295 295 294 294 293 293 293 292 291 291 290 289 288 288 287 287 286 286 285 284 284 283 282 281 280 280 279 278 277
300 301 298 297 296 295 297 300 304 308 311 313 312 311 309 309 309 309 307 305 305 306 307 306 305 303 302 302 302 301 301 300 300 301 301 302 303 305 305 305 305 304 304 303 302 301 301 301 301 300 298 297 297 296 296 296 295 295 295 294 294 293 293 293 292 291 291 290 290 289 289 288 287 287 286 286 285 284 283 282 282 281 280 280 279 278
300 300 296 295 294 296 301 305 308 310 310 309 308 306 305 306 307 307 306 303 304 305 305 305 303 303 303 302 302 301 301 301 302 302 302 303 304 306 307 306 305 304 304 303 302 301 301 301 301 300 299 298 297 297 297 297 296 296 295 295 294 294 293 293 292 292 291 291 290 289 289 288 287 287 286 286 285 284 283 283 282 282 281 281 280 279
297 297 295 293 295 300 305 308 308 307 306 305 304 304 304 305 305 306 306 304 305 306 306 304 302 302 302 303 304 305 304 303 304 305 305 304 304 306 307 307 305 304 303 302 301 300 300 300 300 299 299 298 298 298 298 297 296 296 296 295 295 294 294 294 293 292 292 291 290 290 289 288 287 287 286 286 286 285 284 283 283 283 283 282 281 280
292 292 293 296 299 303 305 306 305 303 303 303 302 302 303 303 304 305 304 303 304 305 305 304 304 304 304 305 307 308 309 308 307 307 306 305 305 306 307 306 304 303 301 300 299 299 299 299 299 298 298 297 298 298 298 297 296 295 296 295 295 294 294 294 293 293 292 291 291 290 289 289 288 287 286 286 286 285 285 284 284 284 283 282 282 281
288 291 295 300 302 302 302 302 300 299 300 300 300 300 300 301 302 302 300 300 300 301 300 301 302 305 306 307 308 310 312 313 311 309 306 304 303 304 306 304 302 300 300 299 298 297 298 298 298 298 297 297 297 297 297 296 296 296 295 295 295 294 294 294 293 293 292 292 291 290 290 289 288 287 287 287 286 286 285 284 284 284 283 282 282 281
291 295 298 299 298 299 300 299 298 298 298 299 299 300 300 299 299 297 296 295 294 294 295 295 296 297 301 304 306 308 312 314 313 310 306 303 302 303 304 303 300 298 297 296 295 296 297 297 297 297 297 297 297 296 296 295 295 295 295 295 294 294 294 293 293 293 293 292 291 291 290 290 289 288 288 287 287 286 285 284 283 283 282 281 281 280
298 299 298 296 296 296 297 297 297 297 298 299 301 302 300 298 296 293 291 289 287 286 287 289 290 291 292 295 299 305 310 313 312 308 304 301 300 301 302 302 299 296 294 294 294 295 296 296 296 296 296 296 296 296 295 295 295 295 295 294 294 294 294 293 293 293 293 292 292 291 291 290 290 289 288 287 287 286 285 284 283 282 281 280 280 280
298 296 294 293 293 293 293 293 294 295 297 299 300 299 296 295 292 289 287 285 283 282 281 283 286 289 292 294 298 303 308 310 309 305 301 299 298 299 301 300 298 295 293 293 293 295 296 296 296 296 296 296 296 296 295 295 295 294 294 294 294 294 293 293 293 293 293 292 292 292 291 291 290 289 288 287 286 285 284 283 282 282 281 281 281 281
292 290 289 287 287 288 289 291 293 295 296 296 295 292 290 290 289 287 286 286 286 285 284 283 286 292 297 299 299 301 304 306 305 302 299 297 296 296 298 299 297 294 293 292 294 295 295 295 295 295 295 295 295 295 295 295 294 293 293 293 293 293 293 293 293 293 293 292 292 292 291 290 289 288 288 287 286 285 284 284 284 283 282 282 282 281
284 283 283 284 284 285 288 291 293 293 293 291 288 285 285 285 284 285 286 288 290 292 293 293 295 297 298 297 297 298 300 301 299 297 297 295 293 294 297 299 297 294 292 293 294 295 295 295 294 294 294 294 294 294 294 294 293 293 293 293 293 293 293 293 293 293 292 292 292 291 290 290 289 288 288 287 287 286 286 286 285 285 284 283 282 281
283 283 286 287 287 288 289 290 290 289 288 285 281 279 278 278 279 282 287 293 298 301 301 300 299 298 296 295 295 296 297 297 295 293 291 289 290 293 298 300 298 294 292 293 295 296 296 295 294 293 293 293 293 293 293 293 293 293 293 293 293 293 293 293 293 292 292 292 291 291 290 290 290 289 289 289 288 288 287 287 286 285 284 283 281 280
289 289 291 291 291 290 289 287 287 287 287 286 284 283 284 287 291 297 301 303 303 303 302 301 300 298 296 296 296 296 297 297 295 291 286 284 287 292 297 299 298 295 293 294 295 296 296 295 294 293 293 293 293 293 293 292 292 292 292 293 293 293 293 292 292 292 292 291 291 291 291 290 290 290 289 289 288 288 287 286 285 284 284 283 281 280
291 291 291 290 290 289 288 288 289 291 293 295 299 302 306 308 307 304 302 301 301 301 301 301 299 298 297 299 298 297 297 298 295 289 284 284 287 290 294 297 296 295 294 295 296 297 296 295 295 294 294 293 293 292 292 292 292 292 292 292 292 293 293 292 292 292 292 292 292 291 291 291 290 290 289 289 288 288 287 286 285 284 284 283 282 281
290 289 289 289 290 290 291 292 293 295 296 299 302 305 307 307 306 303 300 299 300 301 302 300 297 296 297 299 298 297 298 299 295 289 284 285 287 290 292 295 294 293 294 296 297 298 297 296 295 294 294 293 292 291 291 291 291 292 292 292 292 293 292 292 292 292 292 292 292 291 291 290 290 289 289 288 288 287 287 286 285 285 284 284 283 282
290 289 289 290 291 292 293 293 294 294 295 296 298 300 303 304 303 301 298 298 300 301 299 296 295 296 298 298 297 297 298 298 295 290 285 284 285 287 290 293 294 294 295 296 297 297 296 294 294 293 292 291 291 290 290 291 291 291 291 292 292 292 292 292 292 292 292 291 291 291 290 290 290 289 289 288 288 287 287 286 286 285 285 285 284 283
293 291 291 292 293 293 294 294 294 295 295 296 297 299 300 300 299 296 294 296 298 298 294 291 292 294 296 296 297 297 298 296 294 291 288 284 281 283 288 293 295 295 296 297 297 296 294 292 290 290 290 290 290 291 291 291 292 291 291 291 291 292 292 292 292 291 291 291 291 290 290 290 289 289 289 288 288 287 287 287 287 287 287 286 285 283
297 296 295 294 294 294 295 294 295 295 296 297 297 297 297 295 293 291 290 293 294 293 289 287 287 289 291 294 296 297 296 294 293 294 293 288 283 283 289 294 296 297 298 299 299 298 295 292 290 289 289 290 291 292 292 292 292 292 291 291 292 292 292 292 292 292 291 290 290 290 290 289 289 289 289 288 288 288 287 287 287 287 287 286 284 282
302 301 300 299 298 298 298 298 298 299 300 299 298 297 295 291 287 285 285 287 287 285 284 284 285 287 290 294 297 297 296 294 295 299 302 296 289 288 293 295 296 296 299 300 301 299 297 295 294 292 292 292 293 292 292 293 292 292 292 292 292 291 291 292 292 292 292 291 290 290 289 289 289 288 288 288 288 287 287 287 287 287 286 285 283 281
307 306 305 304 304 305 306 306 307 308 307 305 301 297 293 289 285 283 282 281 280 278 279 282 284 285 287 291 294 295 292 294 297 301 303 297 290 289 293 294 295 295 296 296 296 298 298 299 298 297 296 295 294 293 293 292 292 291 291 291 291 290 291 291 292 292 292 291 290 289 289 289 288 288 288 287 287 286 286 286 286 286 285 284 282 280
309 308 308 308 309 311 313 314 314 313 310 307 304 300 296 291 288 284 283 280 277 276 277 279 282 283 283 282 281 280 284 290 294 299 300 294 289 289 291 292 293 294 294 291 287 285 293 297 298 298 298 296 294 293 292 291 291 291 291 290 289 289 290 291 292 292 291 291 290 290 289 288 288 287 287 286 286 285 285 285 284 284 283 282 280 278
308 309 309 311 314 316 317 317 315 313 309 306 303 301 299 296 293 289 286 283 280 277 277 278 280 282 282 281 280 280 282 286 291 296 297 294 290 290 292 292 292 293 293 291 287 284 283 285 292 296 296 295 294 292 292 291 290 290 289 288 287 287 289 290 291 290 290 290 290 290 289 288 287 287 286 285 284 283 283 283 282 281 280 279 277 276
310 311 314 316 318 318 318 316 314 312 309 306 304 302 301 299 296 293 290 287 284 281 279 278 279 280 282 283 283 283 283 285 290 294 296 294 291 290 292 292 292 292 294 292 290 288 285 285 289 293 295 295 294 292 291 290 289 289 288 286 286 286 287 288 289 289 289 289 289 288 288 288 287 286 286 285 284 282 281 282 281 279 277 275 274 274
315 317 319 319 318 317 315 314 313 311 309 307 305 303 301 300 298 296 293 290 288 285 282 279 277 277 279 281 282 284 285 287 290 294 295 292 290 289 291 290 291 292 292 291 290 290 289 288 289 291 293 295 294 293 291 290 289 289 287 286 285 285 285 286 287 287 287 287 287 286 286 286 286 286 285 284 283 282 281 281 280 279 277 275 273 273
319 318 318 317 316 315 314 312 312 311 310 308 306 304 303 301 299 297 294 293 291 288 285 281 279 277 276 275 276 279 282 286 290 292 291 289 288 287 287 288 289 289 289 289 288 288 287 288 289 290 291 292 292 293 293 292 291 290 288 287 286 285 285 285 285 285 285 285 285 284 284 284 284 284 284 283 282 282 281 281 281 279 278 277 275 274
316 314 314 314 314 313 312 311 310 310 309 308 307 306 304 302 300 297 295 294 292 290 288 285 282 279 277 275 275 276 278 283 286 287 287 286 285 283 283 284 285 286 284 285 285 286 287 287 289 290 289 288 288 291 293 294 294 292 289 288 288 287 286 285 284 284 282 282 281 281 282 282 281 281 282 282 282 282 280 279 279 279 278 277 276 274
313 311 311 312 312 311 310 309 309 308 308 307 307 306 304 302 301 299 297 295 293 292 291 289 286 285 283 281 279 279 280 282 283 285 286 285 283 281 280 281 282 282 280 279 280 283 284 286 287 289 289 287 287 288 290 293 293 292 291 290 289 287 286 285 284 283 281 280 280 281 281 280 280 280 281 281 281 280 279 278 278 279 278 278 277 275
310 309 309 310 310 310 309 307 307 307 306 306 305 304 303 302 301 300 298 297 295 294 292 291 289 288 287 286 284 283 283 283 283 284 285 284 282 280 279 279 279 280 279 278 277 278 279 280 282 283 286 288 289 289 290 290 290 290 291 292 291 288 286 286 284 283 281 280 280 280 280 280 280 279 279 278 278 277 276 276 277 278 277 276 276 277
309 308 308 308 308 308 307 305 305 306 306 305 305 304 303 303 303 302 301 299 298 296 295 293 291 290 289 288 287 286 284 284 284 285 285 284 283 281 278 276 276 278 279 278 277 276 276 277 278 280 281 284 286 288 289 288 288 289 291 292 291 290 289 288 286 284 282 280 279 279 279 279 279 278 277 276 275 273 273 274 275 276 276 274 273 274
308 307 306 307 307 307 306 305 306 306 306 306 306 305 305 304 305 305 304 304 302 301 300 298 297 295 294 292 290 289 287 287 287 287 286 286 286 284 280 277 276 276 277 277 276 275 275 275 277 278 279 280 283 284 285 285 286 288 289 287 287 288 289 289 287 284 282 280 278 278 278 279 279 278 276 275 274 274 273 273 273 274 274 273 270 269
307 306 306 306 307 307 306 306 307 307 307 306 305 304 304 304 304 305 305 305 305 304 304 303 301 300 299 298 297 296 294 294 293 292 291 291 290 288 284 281 278 276 276 275 275 275 274 274 274 275 277 278 280 282 284 285 286 286 286 285 286 288 289 288 287 285 282 281 280 279 278 279 278 278 277 276 276 275 275 274 274 273 272 271 268 266
305 304 305 306 306 306 307 308 309 309 308 307 305 304 303 303 303 303 303 302 303 303 304 303 301 300 299 299 300 301 301 300 298 297 296 294 293 291 288 285 283 280 277 274 274 275 276 275 273 273 275 276 277 279 282 284 285 286 285 284 285 287 289 289 289 288 286 284 282 281 280 279 278 278 278 278 277 277 276 275 274 273 270 268 267 265
304 304 306 307 308 309 309 310 309 309 308 306 304 303 303 303 303 302 302 300 300 300 301 301 300 299 297 297 299 302 303 303 302 301 299 297 296 294 291 288 286 283 279 274 272 274 276 277 276 275 275 276 276 276 279 281 283 285 285 284 283 282 281 283 287 288 288 285 283 281 279 279 279 280 280 279 278 277 276 274 273 271 269 267 265 264
305 306 308 309 310 310 310 309 309 308 306 304 303 302 304 304 303 302 301 299 298 298 298 299 300 299 299 298 299 301 304 305 305 305 303 302 300 297 293 290 287 284 280 275 272 271 272 275 277 278 279 278 276 275 276 279 281 283 283 284 283 281 279 281 283 285 285 284 283 282 281 280 281 282 282 281 279 277 276 273 272 270 268 267 264 263
308 309 309 310 310 309 307 307 307 306 305 304 303 303 304 304 304 302 300 298 297 297 298 299 298 296 296 298 300 302 304 305 306 307 307 305 304 301 298 294 290 286 282 278 275 272 270 270 273 277 280 280 278 277 276 276 278 280 282 283 283 283 283 283 283 282 282 282 282 283 283 282 281 279 278 279 279 279 277 274 271 269 268 267 265 263
310 310 309 309 308 307 306 306 306 306 305 304 303 304 304 304 304 303 301 299 298 298 299 300 298 294 293 295 298 300 301 302 304 306 307 307 306 305 303 299 295 290 286 282 279 277 274 272 271 272 273 276 277 278 277 277 277 277 278 281 282 283 283 282 282 282 281 280 281 282 282 282 280 279 277 278 278 278 277 275 273 271 270 269 267 266
309 308 307 307 307 306 306 306 306 305 304 304 304 305 305 305 304 303 301 301 300 299 300 300 297 295 294 295 296 297 298 299 301 303 304 306 306 306 305 302 299 296 293 290 285 281 277 274 272 270 268 268 270 274 277 278 277 276 277 279 280 280 280 281 282 282 281 280 279 279 279 279 277 277 277 278 278 279 279 279 278 276 274 273 271 270
307 306 305 305 305 305 305 306 306 305 304 305 305 306 306 306 305 304 301 301 301 299 298 297 296 296 296 296 297 297 299 299 299 300 302 303 305 305 305 304 303 300 298 296 292 288 284 281 276 271 266 262 262 266 271 274 275 276 276 277 277 277 278 281 282 283 282 281 280 279 278 277 275 274 274 276 278 280 282 283 282 280 278 275 273 271
305 304 304 304 303 303 303 304 305 305 304 305 305 306 306 307 307 305 304 302 301 299 296 295 295 295 296 297 298 299 300 299 299 300 301 302 303 304 304 304 304 303 302 300 299 297 295 293 288 283 275 266 261 260 264 269 273 276 277 276 275 276 276 279 281 282 282 281 280 280 278 277 275 274 274 275 279 282 284 284 283 282 280 277 274 272
304 304 304 303 302 302 302 303 304 304 304 305 305 305 305 306 307 307 307 305 303 301 298 296 295 294 295 296 297 298 299 299 298 299 300 301 302 302 301 301 301 302 301 301 301 302 303 301 299 296 293 284 274 265 263 266 272 275 277 276 277 277 276 278 279 281 281 280 280 279 279 278 278 277 276 277 279 281 283 283 282 282 281 279 275 273